Holdrege, NE

1:49 AM CDT on May 29, 2017 (GMT -0500)
Brewster

Weather History for KHDE - March, 2013

Change the Weather History Date:

Saturday, March 30, 2013

  Actual Average Record
Temperature  
Mean Temperature 53 °F -  
Max Temperature 66 °F 54 °F 138 °F (1999)
Min Temperature 40 °F 31 °F 6 °F (1987)
Degree Days  
Heating Degree Days 12    
Growing Degree Days 3 (Base 50)    
Moisture  
Dew Point 43 °F    
Average Humidity 75    
Maximum Humidity 97    
Minimum Humidity 33    
Precipitation  
Precipitation 0.01 in - - ()
Sea Level Pressure  
Sea Level Pressure 29.98 in    
Wind  
Wind Speed 9 mph (North)    
Max Wind Speed 18 mph    
Max Gust Speed 23 mph    
Visibility 8 miles    
Events Fog , Rain , Thunderstorm    
Averages and records for this station are not official NWS values.
T = Trace of Precipitation, MM = Missing Value Source: NWS Daily Summary

Daily Weather History Graph

Daily Weather History Graph

Search for Another Location

Airport or City:

Trip Planner

Search our weather history database for the weather conditions in past years. The results will help you decide how hot, cold, wet, or windy it might be!

Date:

Astronomy

Mar. 30, 2013 Rise Set
Actual Time 7:23 AM CDT 8:00 PM CDT
Civil Twilight 6:56 AM CDT 8:27 PM CDT
Nautical Twilight 6:24 AM CDT 9:00 PM CDT
Astronomical Twilight 5:50 AM CDT 9:33 PM CDT
Moon No Moon Rise 9:19 AM CDT (3/30)
Length of Visible Light 13h 31m
Length of Day
12h 36m
Waning Gibbous, 86% of the Moon is Illuminated
Mar 30
Waning Gibbous
Apr 2
Last Quarter
Apr 10
New
Apr 18
First Quarter
Apr 25
Full

Hourly Weather History & Observations

Time (CDT) Temp. Windchill Dew Point Humidity Pressure Visibility Wind Dir Wind Speed Gust Speed Precip Events Conditions
12:15 AM 52.2 °F - 47.5 °F 84% 29.97 in 10.0 mi SSW 9.2 mph - N/A Thunderstorm Scattered Clouds
12:35 AM 52.3 °F - 47.8 °F 85% 29.97 in 10.0 mi South 6.9 mph - N/A Thunderstorm Scattered Clouds
12:55 AM 52.5 °F - 47.8 °F 84% 29.97 in 10.0 mi East 4.6 mph - N/A   Mostly Cloudy
1:15 AM 51.3 °F - 48.6 °F 90% 29.98 in 10.0 mi ESE 5.8 mph - N/A   Scattered Clouds
1:35 AM 50.7 °F - 46.8 °F 86% 29.98 in 10.0 mi East 9.2 mph - N/A   Clear
1:55 AM 48.2 °F - 45.9 °F 92% 29.97 in 7.0 mi SE 6.9 mph - N/A   Clear
2:15 AM 47.3 °F - 45.5 °F 93% 29.96 in 7.0 mi SSE 6.9 mph - N/A   Clear
2:35 AM 47.1 °F - 45.3 °F 93% 29.96 in 10.0 mi South 6.9 mph - N/A   Clear
2:55 AM 48.2 °F - 45.7 °F 91% 29.95 in 10.0 mi South 6.9 mph - N/A   Clear
3:15 AM 47.8 °F - 45.3 °F 91% 29.94 in 10.0 mi South 6.9 mph - N/A   Clear
3:35 AM 47.3 °F - 45.3 °F 93% 29.93 in 7.0 mi South 9.2 mph - N/A   Clear
3:55 AM 49.1 °F - 46.8 °F 92% 29.92 in 10.0 mi South 8.1 mph - N/A   Clear
4:15 AM 49.3 °F - 46.8 °F 91% 29.92 in 10.0 mi SSW 9.2 mph - N/A   Clear
4:35 AM 48.4 °F - 45.7 °F 90% 29.92 in 10.0 mi SW 4.6 mph - N/A   Clear
4:55 AM 48.7 °F - 46.6 °F 92% 29.91 in 10.0 mi SSW 8.1 mph - N/A   Clear
5:15 AM 48.6 °F - 46.4 °F 92% 29.92 in 10.0 mi SW 4.6 mph - N/A   Clear
5:35 AM 46.9 °F - 45.0 °F 93% 29.92 in 5.0 mi Calm Calm - N/A   Clear
5:55 AM 43.0 °F 41.3 °F 41.4 °F 94% 29.92 in 2.0 mi NNW 3.5 mph - N/A   Clear
6:15 AM 40.5 °F 35.8 °F 39.2 °F 95% 29.92 in 0.2 mi North 6.9 mph - N/A Fog Fog
6:35 AM 41.5 °F 37.1 °F 40.3 °F 95% 29.93 in 0.2 mi NNW 6.9 mph - N/A Fog Fog
6:55 AM 41.9 °F 36.9 °F 40.6 °F 95% 29.93 in 0.2 mi NW 8.1 mph - N/A Fog Fog
7:15 AM 43.2 °F 38.4 °F 42.1 °F 96% 29.95 in 0.2 mi NNW 8.1 mph - N/A Rain Light Rain
7:35 AM 44.1 °F 38.1 °F 43.0 °F 96% 29.96 in 0.2 mi NNW 11.5 mph - N/A Rain Light Rain
7:55 AM 44.2 °F 38.0 °F 43.2 °F 96% 29.97 in 0.2 mi NNW 12.7 mph - N/A Rain Light Rain
8:15 AM 44.6 °F 38.4 °F 43.3 °F 95% 29.98 in 0.2 mi North 12.7 mph 18.4 mph N/A Rain Light Rain
8:35 AM 45.0 °F 39.3 °F 43.9 °F 96% 29.99 in 0.2 mi North 11.5 mph 17.3 mph N/A   Unknown
8:55 AM 46.2 °F 41.7 °F 45.0 °F 95% 30.00 in 0.2 mi North 9.2 mph - N/A Fog Fog
9:15 AM 47.1 °F - 46.0 °F 96% 30.00 in 0.2 mi North 10.4 mph - N/A Fog Fog
9:35 AM 48.6 °F - 47.5 °F 96% 30.00 in 0.8 mi North 13.8 mph - N/A   Overcast
9:55 AM 49.8 °F - 48.9 °F 97% 30.00 in 4.0 mi North 12.7 mph - N/A   Overcast
10:15 AM 51.1 °F - 50.0 °F 96% 30.00 in 5.0 mi North 12.7 mph - N/A   Overcast
10:35 AM 51.4 °F - 50.4 °F 96% 30.01 in 7.0 mi North 15.0 mph - N/A   Overcast
10:55 AM 53.4 °F - 51.4 °F 93% 30.01 in 10.0 mi North 11.5 mph - N/A   Mostly Cloudy
11:15 AM 55.2 °F - 50.7 °F 85% 30.01 in 10.0 mi NNE 13.8 mph - N/A   Scattered Clouds
11:35 AM 56.5 °F - 49.5 °F 77% 30.01 in 10.0 mi NNE 16.1 mph - N/A   Clear
11:55 AM 57.9 °F - 47.8 °F 69% 30.01 in 10.0 mi NNE 15.0 mph - N/A   Clear
12:15 PM 59.5 °F - 47.5 °F 64% 30.01 in 10.0 mi North 16.1 mph - N/A   Clear
12:35 PM 60.4 °F - 45.1 °F 57% 30.01 in 10.0 mi North 12.7 mph 18.4 mph N/A   Clear
12:55 PM 62.6 °F - 42.8 °F 48% 30.00 in 10.0 mi NNE 18.4 mph 23.0 mph N/A   Clear
1:15 PM 63.1 °F - 40.3 °F 43% 30.00 in 10.0 mi NNE 17.3 mph - N/A   Clear
1:35 PM 63.5 °F - 39.6 °F 41% 30.00 in 10.0 mi NE 17.3 mph 20.7 mph N/A   Clear
1:55 PM 64.4 °F - 40.1 °F 41% 30.00 in 10.0 mi North 15.0 mph 18.4 mph N/A   Clear
2:15 PM 64.6 °F - 37.9 °F 37% 29.99 in 10.0 mi NNE 6.9 mph 23.0 mph N/A   Clear
2:35 PM 65.3 °F - 37.9 °F 36% 29.98 in 10.0 mi North 9.2 mph - N/A   Clear
2:55 PM 65.5 °F - 37.0 °F 35% 29.98 in 10.0 mi North 8.1 mph - N/A   Clear
3:15 PM 65.7 °F - 36.3 °F 34% 29.97 in 10.0 mi North 8.1 mph - N/A   Clear
3:35 PM 66.0 °F - 36.3 °F 33% 29.97 in 10.0 mi North 6.9 mph - N/A   Scattered Clouds
3:55 PM 64.8 °F - 36.0 °F 34% 29.97 in 10.0 mi North 6.9 mph - N/A   Scattered Clouds
4:15 PM 63.9 °F - 36.3 °F 36% 29.97 in 10.0 mi North 8.1 mph - N/A   Overcast
4:35 PM 63.5 °F - 36.3 °F 36% 29.97 in 10.0 mi North 6.9 mph - N/A   Overcast
4:55 PM 64.4 °F - 37.8 °F 37% 29.96 in 10.0 mi North 10.4 mph - N/A   Overcast
5:15 PM 63.5 °F - 37.2 °F 38% 29.96 in 10.0 mi NNE 11.5 mph - N/A   Overcast
5:35 PM 62.4 °F - 37.9 °F 40% 29.95 in 10.0 mi NNE 10.4 mph - N/A   Overcast
5:55 PM 61.0 °F - 38.5 °F 43% 29.97 in 10.0 mi North 11.5 mph - N/A   Overcast
6:15 PM 57.4 °F - 43.5 °F 60% 29.98 in 7.0 mi NNW 12.7 mph 18.4 mph 0.01 in Rain Light Rain
6:35 PM 58.3 °F - 43.9 °F 59% 29.98 in 10.0 mi NNW 10.4 mph - 0.01 in   Scattered Clouds
6:55 PM 58.6 °F - 42.3 °F 55% 29.99 in 10.0 mi North 13.8 mph 19.6 mph 0.01 in   Scattered Clouds
7:15 PM 53.8 °F - 43.0 °F 67% 30.00 in 10.0 mi North 17.3 mph - N/A   Scattered Clouds
7:35 PM 52.7 °F - 43.7 °F 71% 30.01 in 10.0 mi North 13.8 mph 19.6 mph N/A   Scattered Clouds
7:55 PM 51.6 °F - 43.9 °F 75% 30.01 in 10.0 mi North 13.8 mph - N/A   Overcast
8:15 PM 50.9 °F - 43.7 °F 76% 30.01 in 10.0 mi North 15.0 mph - N/A   Overcast
8:35 PM 50.4 °F - 43.7 °F 78% 30.02 in 10.0 mi North 11.5 mph - N/A   Overcast
8:55 PM 49.5 °F - 43.3 °F 79% 30.02 in 10.0 mi North 10.4 mph - N/A   Overcast
9:15 PM 49.3 °F - 43.2 °F 79% 30.03 in 10.0 mi NW 8.1 mph - N/A   Overcast
9:35 PM 49.1 °F - 43.3 °F 81% 30.04 in 10.0 mi WNW 4.6 mph - N/A   Overcast
9:55 PM 48.7 °F - 43.0 °F 80% 30.05 in 10.0 mi WNW 4.6 mph - N/A   Scattered Clouds
10:15 PM 47.5 °F - 42.6 °F 83% 30.06 in 10.0 mi NW 6.9 mph - N/A   Scattered Clouds
10:35 PM 48.2 °F - 43.0 °F 82% 30.07 in 10.0 mi WNW 8.1 mph - N/A   Mostly Cloudy
10:55 PM 48.7 °F - 42.1 °F 78% 30.07 in 10.0 mi WNW 5.8 mph - N/A   Overcast
11:15 PM 47.7 °F - 42.3 °F 82% 30.07 in 10.0 mi WNW 4.6 mph - N/A   Overcast
11:35 PM 47.5 °F - 41.5 °F 80% 30.06 in 10.0 mi WNW 5.8 mph - N/A   Mostly Cloudy
11:55 PM 46.2 °F 42.7 °F 41.2 °F 83% 30.06 in 10.0 mi WNW 6.9 mph - N/A   Scattered Clouds